Orbital Elements at Epoch 2459000.5 (2020-May-31.0) TDB
Reference: JPL 17 (heliocentric ecliptic J2000)
Element | Value | Uncertainty (1-sigma) | Units |
e | .1886548001639452 | 7.0013e-08 | |
a | 2.56356015784598 | 1.528e-08 | au |
q | 2.079932228559294 | 1.7729e-07 | au |
i | 13.92224459610451 | 8.4208e-06 | deg |
node | 248.4415292068653 | 2.4494e-05 | deg |
peri | 157.8567493442274 | 3.5038e-05 | deg |
M | 62.30231845532771 | 1.9949e-05 | deg |
tp | 2458741.042992728974 (2019-Sep-14.54299273) | 8.3803e-05 | TDB |
period | 1499.214233649149 4.10 | 1.3404e-05 3.67e-08 | d yr |
n | .2401257885097216 | 2.1468e-09 | deg/d |
Q | 3.047188087132665 | 1.8162e-08 | au |
|
| | Orbit Determination Parameters
Additional Information
|